User: anonymous   Login
Location: Wildcat Hills Observatory
(41.6350°N, 103.6812°W)
Time: 18:10:10
(UTC-06:00)
Language:

Cosmos 1634 Rocket - Orbit

View from above orbital plane
View from above orbital plane
View from above satellite
View from above satellite

Ground track
Ground track

The orbit data is extracted from the following two-line orbital elements,

1 15598U 85022B   15091.21709299  .00000124  00000-0  11073-3 0  9992
2 15598 082.9406 347.6472 0021471 205.8961 326.8858 13.76508784509315
Epoch (UTC): 01 April 2015 05:12:36
Eccentricity: 0.0021471
inclination: 82.9406°
perigee height: 960 km
apogee height: 992 km
right ascension of ascending node: 347.6472°
argument of perigee: 205.8961°
revolutions per day: 13.76508784
mean anomaly at epoch: 326.8858°
orbit number at epoch: 50931

The dashed part of the orbit path shows where the satellite is in the earth's shadow,  

DLR